When you browse on this site, cookies collect data to enhance your experience and personalize the content and advertising you see.
Visit our Privacy Policy to learn more. By continuing to use the site, you agree to this use of cookies and data.
  • In Deutschland
  • Länderverzeichnis
  • Für 7 Tage
  • Wassertemperatur
  • Wetterkarte
  • Widgets
  • user-avatar
    Anmelden

    Stündliche Wetter Barra

    Heute, 10 Dezember, Dienstag

    Zeit Temperatur Niederschläge Wind Luftdruck Luftfeuchtigkeit
    00:00 +25°C° 0.1 mm 4 m/S 749 mmHg 89%
    01:00 +25°C° 0.1 mm 4 m/S 748 mmHg 89%
    02:00 +25°C° 0.5 mm 4 m/S 748 mmHg 90%
    03:00 +25°C° 0.5 mm 4 m/S 748 mmHg 91%
    04:00 +25°C° 0 mm 5 m/S 748 mmHg 90%
    05:00 +25°C° 0.7 mm 5 m/S 748 mmHg 90%
    06:00 +26°C° 0.7 mm 5 m/S 748 mmHg 89%
    07:00 +26°C° 0.7 mm 5 m/S 749 mmHg 88%
    08:00 +26°C° 1.2 mm 5 m/S 749 mmHg 87%
    09:00 +27°C° 1.2 mm 5 m/S 749 mmHg 86%
    10:00 +27°C° 0 mm 5 m/S 749 mmHg 85%
    11:00 +27°C° 1.5 mm 5 m/S 748 mmHg 83%
    12:00 +28°C° 1.5 mm 5 m/S 748 mmHg 81%
    13:00 +28°C° 1.5 mm 5 m/S 747 mmHg 79%
    14:00 +29°C° 0.9 mm 5 m/S 747 mmHg 78%
    15:00 +29°C° 0.9 mm 5 m/S 747 mmHg 78%
    16:00 +29°C° 0 mm 5 m/S 746 mmHg 77%
    17:00 +28°C° 0.9 mm 5 m/S 747 mmHg 81%
    18:00 +27°C° 0.9 mm 5 m/S 747 mmHg 85%
    19:00 +26°C° 0.9 mm 4 m/S 747 mmHg 89%
    20:00 +26°C° 0.9 mm 4 m/S 748 mmHg 90%
    21:00 +26°C° 0.9 mm 4 m/S 748 mmHg 92%
    22:00 +25°C° 0.9 mm 4 m/S 748 mmHg 93%
    23:00 +25°C° 0.8 mm 4 m/S 748 mmHg 93%

    Morgen, 11 Dezember, Mittwoch

    Zeit Temperatur Niederschläge Wind Luftdruck Luftfeuchtigkeit
    00:00 +25°C° 0.8 mm 3 m/S 748 mmHg 93%
    01:00 +25°C° 0.8 mm 3 m/S 747 mmHg 94%
    02:00 +25°C° 0.7 mm 3 m/S 747 mmHg 94%
    03:00 +25°C° 0.7 mm 3 m/S 746 mmHg 94%
    04:00 +25°C° 0.7 mm 3 m/S 746 mmHg 94%
    05:00 +26°C° 0.5 mm 4 m/S 746 mmHg 92%
    06:00 +26°C° 0.5 mm 4 m/S 747 mmHg 90%
    07:00 +27°C° 0.5 mm 4 m/S 747 mmHg 88%
    08:00 +28°C° 0.6 mm 4 m/S 747 mmHg 84%
    09:00 +28°C° 0.6 mm 5 m/S 747 mmHg 80%
    10:00 +29°C° 0.6 mm 5 m/S 747 mmHg 76%
    11:00 +30°C° 0.7 mm 5 m/S 747 mmHg 74%
    12:00 +30°C° 0.7 mm 5 m/S 746 mmHg 72%
    13:00 +32°C° 0.7 mm 5 m/S 745 mmHg 70%
    14:00 +32°C° 0.6 mm 4 m/S 745 mmHg 70%
    15:00 +30°C° 0.6 mm 4 m/S 745 mmHg 69%
    16:00 +30°C° 0.6 mm 4 m/S 745 mmHg 69%
    17:00 +29°C° 0.1 mm 4 m/S 745 mmHg 75%
    18:00 +28°C° 0.1 mm 3 m/S 745 mmHg 81%
    19:00 +27°C° 0.1 mm 3 m/S 746 mmHg 88%
    20:00 +26°C° 0 mm 3 m/S 746 mmHg 89%
    21:00 +26°C° 0 mm 3 m/S 747 mmHg 91%
    22:00 +26°C° 0 mm 3 m/S 747 mmHg 93%
    23:00 +25°C° 0.1 mm 3 m/S 747 mmHg 93%

    übermorgen, 12 Dezember, Donnerstag

    Zeit Temperatur Niederschläge Wind Luftdruck Luftfeuchtigkeit
    00:00 +25°C° 0.1 mm 3 m/S 746 mmHg 94%
    01:00 +25°C° 0.1 mm 3 m/S 746 mmHg 94%
    02:00 +25°C° 0.2 mm 3 m/S 746 mmHg 94%
    03:00 +25°C° 0.2 mm 3 m/S 745 mmHg 94%
    04:00 +25°C° 0.2 mm 3 m/S 745 mmHg 94%
    05:00 +26°C° 0.1 mm 3 m/S 745 mmHg 92%
    06:00 +26°C° 0.1 mm 3 m/S 746 mmHg 90%
    07:00 +27°C° 0.1 mm 3 m/S 746 mmHg 88%
    08:00 +28°C° 0 mm 3 m/S 746 mmHg 79%
    09:00 +30°C° 0 mm 4 m/S 746 mmHg 70%
    10:00 +32°C° 0 mm 4 m/S 746 mmHg 62%
    11:00 +33°C° 0 mm 4 m/S 746 mmHg 60%
    12:00 +33°C° 0 mm 4 m/S 746 mmHg 58%
    13:00 +33°C° 0 mm 5 m/S 745 mmHg 56%
    14:00 +33°C° 0 mm 5 m/S 745 mmHg 56%
    15:00 +33°C° 0 mm 5 m/S 745 mmHg 56%
    16:00 +32°C° 0 mm 5 m/S 744 mmHg 56%
    17:00 +30°C° 0 mm 4 m/S 745 mmHg 65%
    18:00 +28°C° 0 mm 3 m/S 746 mmHg 73%
    19:00 +26°C° 0 mm 3 m/S 746 mmHg 81%
    20:00 +25°C° 0 mm 2 m/S 746 mmHg 83%
    21:00 +25°C° 0 mm 2 m/S 747 mmHg 85%
    22:00 +24°C° 0 mm 1 m/S 747 mmHg 87%
    23:00 +24°C° 0 mm 1 m/S 747 mmHg 88%

    13 Dezember, Freitag

    Zeit Temperatur Niederschläge Wind Luftdruck Luftfeuchtigkeit
    00:00 +24°C° 0 mm 1 m/S 746 mmHg 88%
    01:00 +23°C° 0 mm 1 m/S 746 mmHg 88%
    02:00 +23°C° 0 mm 1 m/S 746 mmHg 89%
    03:00 +23°C° 0 mm 1 m/S 746 mmHg 90%
    04:00 +23°C° 0 mm 1 m/S 746 mmHg 90%
    05:00 +24°C° 0 mm 1 m/S 746 mmHg 86%
    06:00 +25°C° 0 mm 1 m/S 746 mmHg 81%
    07:00 +25°C° 0 mm 1 m/S 747 mmHg 77%
    08:00 +28°C° 0 mm 1 m/S 747 mmHg 66%
    09:00 +30°C° 0 mm 1 m/S 747 mmHg 55%
    10:00 +33°C° 0 mm 1 m/S 747 mmHg 45%
    11:00 +34°C° 0 mm 2 m/S 746 mmHg 44%
    12:00 +34°C° 0 mm 2 m/S 746 mmHg 43%
    13:00 +35°C° 0 mm 2 m/S 745 mmHg 43%
    14:00 +34°C° 0 mm 2 m/S 745 mmHg 44%
    15:00 +33°C° 0 mm 3 m/S 745 mmHg 46%
    16:00 +33°C° 0 mm 3 m/S 744 mmHg 48%
    17:00 +30°C° 0 mm 2 m/S 745 mmHg 56%
    18:00 +28°C° 0 mm 2 m/S 745 mmHg 63%
    19:00 +26°C° 0 mm 1 m/S 745 mmHg 71%
    20:00 +25°C° 0 mm 1 m/S 746 mmHg 74%
    21:00 +25°C° 0 mm 1 m/S 746 mmHg 77%
    22:00 +24°C° 0 mm 1 m/S 746 mmHg 80%
    23:00 +24°C° 0 mm 1 m/S 746 mmHg 81%

    14 Dezember, Samstag

    Zeit Temperatur Niederschläge Wind Luftdruck Luftfeuchtigkeit
    00:00 +23°C° 0 mm 1 m/S 746 mmHg 83%
    01:00 +23°C° 0 mm 1 m/S 745 mmHg 84%
    02:00 +23°C° 0 mm 1 m/S 745 mmHg 84%
    03:00 +22°C° 0 mm 1 m/S 745 mmHg 85%
    04:00 +22°C° 0 mm 1 m/S 745 mmHg 86%
    05:00 +23°C° 0 mm 1 m/S 745 mmHg 82%
    06:00 +24°C° 0 mm 1 m/S 746 mmHg 77%
    07:00 +25°C° 0 mm 1 m/S 747 mmHg 73%
    08:00 +28°C° 0 mm 1 m/S 747 mmHg 62%
    09:00 +31°C° 0 mm 1 m/S 747 mmHg 52%
    10:00 +35°C° 0 mm 2 m/S 747 mmHg 41%
    11:00 +35°C° 0 mm 2 m/S 746 mmHg 42%
    12:00 +35°C° 0 mm 3 m/S 746 mmHg 43%
    13:00 +35°C° 0 mm 3 m/S 745 mmHg 43%
    14:00 +34°C° 0 mm 3 m/S 744 mmHg 46%
    15:00 +34°C° 0 mm 3 m/S 744 mmHg 48%
    16:00 +33°C° 0 mm 4 m/S 743 mmHg 51%
    17:00 +30°C° 0 mm 3 m/S 743 mmHg 58%
    18:00 +28°C° 0 mm 3 m/S 744 mmHg 66%
    19:00 +27°C° 0 mm 3 m/S 744 mmHg 74%
    20:00 +26°C° 0 mm 2 m/S 745 mmHg 75%
    21:00 +26°C° 0 mm 2 m/S 746 mmHg 77%
    22:00 +26°C° 0 mm 2 m/S 746 mmHg 79%
    23:00 +26°C° 0 mm 2 m/S 746 mmHg 80%

    15 Dezember, Sonntag

    Zeit Temperatur Niederschläge Wind Luftdruck Luftfeuchtigkeit
    00:00 +25°C° 0 mm 2 m/S 746 mmHg 81%
    01:00 +25°C° 0 mm 2 m/S 745 mmHg 82%
    02:00 +25°C° 0 mm 2 m/S 745 mmHg 84%
    03:00 +25°C° 0 mm 1 m/S 745 mmHg 86%
    04:00 +24°C° 0 mm 1 m/S 744 mmHg 88%
    05:00 +25°C° 0 mm 2 m/S 745 mmHg 84%
    06:00 +26°C° 0 mm 2 m/S 745 mmHg 81%
    07:00 +27°C° 0 mm 3 m/S 746 mmHg 77%
    08:00 +30°C° 0 mm 2 m/S 746 mmHg 64%
    09:00 +34°C° 0 mm 2 m/S 746 mmHg 51%
    10:00 +37°C° 0 mm 2 m/S 746 mmHg 38%
    11:00 +36°C° 0 mm 3 m/S 746 mmHg 41%
    12:00 +36°C° 0 mm 4 m/S 745 mmHg 44%
    13:00 +36°C° 0 mm 5 m/S 745 mmHg 47%
    14:00 +34°C° 0 mm 4 m/S 744 mmHg 52%
    15:00 +33°C° 0 mm 4 m/S 744 mmHg 56%
    16:00 +32°C° 0 mm 4 m/S 743 mmHg 61%
    17:00 +30°C° 0 mm 4 m/S 744 mmHg 67%
    18:00 +29°C° 0 mm 3 m/S 744 mmHg 73%
    19:00 +27°C° 0 mm 3 m/S 744 mmHg 79%
    20:00 +27°C° 0 mm 3 m/S 745 mmHg 82%
    21:00 +26°C° 0 mm 3 m/S 745 mmHg 85%
    22:00 +26°C° 0 mm 3 m/S 746 mmHg 88%
    23:00 +26°C° 0 mm 2 m/S 746 mmHg 89%
    Mehr zeigen